Wind_Speed
20 22 23 25 26 24 25 24 27 25 24 24 23 22 22 23 21 21 22 21 21 20 18 13 11 8 4 4 6 6 2 22 20 14 14 8 4 5 6 6 6 5 7 11 9 8 5
23 22 21 23 24 25 27 26 28 28 26 24 23 23 23 21 23 22 21 20 21 20 19 19 13 9 4 6 8 7 9 16 15 16 16 10 5 8 4 6 5 3 2 3 5 7 5
23 25 26 26 27 28 31 31 30 29 27 25 23 23 24 21 20 22 22 20 20 20 19 19 15 11 6 10 6 10 10 12 11 18 6 19 5 4 4 2 3 3 4 7 6 6 5
25 25 26 26 29 30 28 30 30 27 24 24 23 22 23 22 19 20 20 19 20 20 20 19 20 12 5 9 19 9 11 10 6 7 23 12 2 1 2 1 2 4 3 2 7 10 8
25 26 28 29 29 28 27 29 29 27 26 25 22 20 20 20 19 19 19 20 22 19 19 21 16 9 5 9 13 18 12 7 8 5 7 13 6 0 2 4 1 2 3 5 7 9 6
25 29 28 30 31 29 28 29 28 27 26 24 21 19 19 19 20 16 17 20 22 17 13 14 9 4 5 8 10 17 16 13 4 5 5 5 3 3 2 4 5 5 4 4 6 5 2
26 27 30 31 31 30 29 28 27 26 24 23 20 19 19 17 15 13 16 10 3 3 8 5 9 3 1 12 17 16 18 11 6 3 4 4 3 5 9 6 4 5 6 5 4 5 2
26 27 29 30 30 29 29 28 26 25 23 22 21 20 18 16 16 15 18 3 2 4 5 12 9 14 15 18 7 10 15 6 6 6 5 4 2 5 8 9 10 5 7 5 6 5 4
26 28 29 30 28 28 28 26 25 25 24 23 22 19 19 20 15 15 9 9 8 5 4 9 6 14 7 5 6 13 11 7 8 6 6 5 2 7 5 2 7 2 4 3 5 7 6
26 29 28 28 28 28 27 27 25 25 24 24 22 21 21 21 16 3 5 3 11 6 3 10 6 9 7 5 4 9 10 6 4 9 6 1 1 3 4 3 3 0 4 5 4 4 4
26 25 28 28 28 28 28 27 27 24 26 23 21 22 26 21 11 4 3 5 14 7 4 13 9 17 7 2 13 8 7 1 6 6 6 6 3 5 3 2 5 3 6 5 4 3 5
25 27 29 29 28 27 29 29 29 28 26 23 24 27 29 20 8 14 16 4 3 2 4 6 8 11 8 10 2 7 4 1 2 4 5 4 3 3 6 2 4 5 4 3 3 2 2
26 28 28 28 27 28 29 29 30 30 27 26 29 29 27 13 3 8 18 6 3 3 2 6 8 15 12 9 6 9 9 5 4 5 2 2 2 3 3 4 2 4 5 2 2 2 6
25 27 29 28 28 28 28 30 31 31 33 33 28 29 11 5 1 18 12 2 2 2 3 8 15 16 7 12 9 9 7 4 3 3 4 5 3 8 5 5 6 6 5 4 5 3 4
25 27 29 28 29 29 30 32 32 34 37 40 18 6 4 6 18 15 1 2 2 4 2 8 14 6 5 4 7 7 5 5 5 4 5 4 3 4 9 3 5 3 3 4 1 2 2
23 26 28 28 29 29 31 33 34 37 40 20 6 4 6 9 9 2 2 4 4 5 9 12 4 3 7 7 6 5 8 6 5 8 1 1 4 5 4 4 4 5 4 2 2 2 5
23 26 28 27 28 29 31 33 35 36 28 13 7 3 6 8 1 1 1 3 3 8 12 2 5 7 10 6 6 7 11 6 9 9 6 1 2 2 2 5 6 4 5 4 2 3 3
24 26 28 27 28 29 31 33 34 35 25 12 3 3 6 11 3 1 3 3 4 4 9 5 4 8 12 6 7 3 9 2 9 10 6 3 4 3 8 6 8 5 6 6 4 4 4
23 25 26 27 28 29 31 33 33 34 25 7 2 1 3 4 2 1 3 3 4 4 3 3 1 4 14 5 6 2 5 5 8 7 12 6 1 2 1 3 1 5 6 8 3 2 8
22 23 25 26 27 28 28 32 34 36 24 2 2 2 2 2 1 1 1 2 4 5 4 5 11 14 7 1 5 7 4 4 4 3 8 6 4 5 5 3 3 3 3 6 9 4 8
20 21 23 24 25 26 26 30 34 39 20 1 1 1 1 2 2 2 1 5 7 6 6 5 8 9 6 5 5 5 7 3 5 2 4 4 2 1 5 6 4 6 9 9 10 15 10
19 20 21 22 23 25 26 27 29 33 22 6 2 2 3 3 4 5 5 3 6 5 5 7 9 12 10 4 2 8 7 4 4 2 3 2 2 2 5 9 10 9 13 13 15 18 19
17 18 20 21 21 22 24 24 24 27 26 5 4 3 2 4 3 1 3 2 3 2 7 6 5 7 10 3 5 4 4 3 7 7 5 5 3 1 4 5 6 5 7 12 6 5 6
16 18 18 20 20 20 21 22 20 21 20 14 5 3 2 2 2 1 0 2 5 3 4 4 8 4 2 4 5 6 6 6 6 4 5 5 3 1 3 4 1 4 5 6 10 7 10
15 17 17 19 19 19 19 20 18 17 18 19 4 3 2 2 2 4 2 5 5 5 5 4 5 2 2 2 2 3 2 2 3 4 5 4 3 1 1 2 6 3 2 2 6 6 5
15 17 17 18 17 18 18 19 18 17 17 19 5 6 3 2 2 5 1 5 3 1 2 2 2 3 4 2 2 3 3 3 3 3 5 5 3 1 2 2 3 2 2 2 4 4 4
16 17 17 18 17 17 16 17 17 16 16 17 7 7 3 2 3 4 2 3 2 3 3 2 1 2 2 1 2 2 2 1 3 5 4 4 3 5 5 4 6 8 6 5 3 5 2
15 17 17 19 17 17 16 16 16 16 14 15 12 2 4 2 4 4 5 2 3 2 2 3 2 0 1 1 2 2 1 2 2 6 6 6 5 3 5 4 6 4 4 3 4 3 3
15 16 16 19 18 18 17 16 15 15 13 12 5 6 10 2 4 7 7 3 3 2 4 2 1 2 2 2 1 2 1 3 1 2 4 3 6 4 7 6 6 3 3 1 1 3 2
Wind_Direction
336 336 340 335 334 333 325 323 324 321 319 318 315 315 313 317 317 317 313 308 302 304 305 260 231 229 204 213 247 263 233 193 191 186 201 213 214 197 183 197 242 231 240 248 253 288 281
335 336 336 334 330 326 327 329 319 316 318 314 310 317 316 314 313 312 309 304 301 300 303 311 211 207 221 232 214 157 133 165 196 194 214 217 218 207 208 241 203 258 178 296 305 308 320
340 339 335 331 331 337 331 324 325 324 323 325 323 311 312 312 313 310 304 298 301 294 294 314 197 189 230 230 182 161 170 190 192 198 197 216 239 170 197 242 304 106 21 342 308 283 255
337 336 337 340 332 329 330 328 327 326 321 313 316 317 311 311 316 314 306 300 299 293 288 287 188 178 245 243 226 223 200 212 190 191 210 202 175 120 103 270 29 53 43 319 247 235 234
338 341 338 334 331 332 332 330 330 327 325 323 321 317 313 311 319 317 311 304 296 284 284 266 168 170 230 211 197 203 186 199 193 178 157 157 86 350 99 110 72 208 232 228 293 240 206
339 341 336 334 334 333 331 330 330 328 327 326 328 324 319 317 318 319 321 310 295 280 275 258 112 131 246 201 173 186 187 196 169 132 100 137 141 138 113 158 198 197 228 244 234 298 220
343 338 336 335 338 338 335 335 333 331 331 330 331 328 323 325 323 330 328 339 360 205 227 154 179 244 193 167 154 173 187 156 137 128 150 178 157 180 196 193 243 271 299 274 270 327 325
339 340 336 338 340 341 339 337 336 332 331 332 327 324 321 321 320 314 315 245 287 65 311 215 224 229 121 132 128 174 181 136 137 174 146 122 182 189 194 204 232 266 276 278 298 351 23
342 340 340 342 343 340 339 337 335 334 331 328 324 321 317 316 307 305 264 227 173 8 277 192 219 207 158 145 139 179 174 131 151 162 160 144 138 207 220 274 201 237 268 291 268 339 349
342 344 341 343 341 339 339 337 334 333 329 327 324 319 319 318 300 234 270 248 181 106 255 158 222 195 150 166 113 170 188 143 151 158 157 112 173 112 132 223 145 28 34 68 48 46 258
345 341 342 341 340 340 340 337 336 335 333 330 324 322 318 312 287 222 226 102 140 96 202 150 150 141 158 179 127 197 208 338 160 144 122 228 162 138 138 208 162 179 93 72 40 12 353
343 341 343 342 342 343 341 339 339 339 333 328 322 315 314 309 244 238 207 127 121 247 236 139 140 156 126 157 85 133 145 30 82 149 136 124 82 102 186 131 81 126 69 45 43 59 312
343 344 348 347 344 344 341 342 340 338 332 324 318 318 320 298 296 153 166 150 71 250 303 132 144 145 141 136 119 155 154 142 135 113 137 87 133 133 77 128 113 95 79 10 349 217 237
345 345 348 348 348 345 345 342 341 337 330 323 318 321 329 276 56 151 146 89 137 238 63 129 135 136 126 125 134 149 144 143 269 84 105 141 315 161 186 172 173 163 162 161 218 216 275
348 347 347 349 348 346 346 344 343 338 329 323 323 2 34 48 148 162 316 48 295 345 143 126 112 117 129 121 131 147 166 160 198 180 126 125 261 151 163 154 125 192 184 185 47 300 42
351 351 350 352 350 350 349 347 346 344 351 5 67 46 61 91 137 84 8 14 332 310 117 138 87 183 134 146 122 124 166 194 193 195 154 2 111 144 150 161 228 157 170 97 4 281 281
353 349 350 354 352 351 351 350 349 354 2 353 44 40 22 49 23 39 5 24 321 314 163 173 144 121 129 142 128 151 183 167 178 189 160 166 84 92 145 196 187 180 205 203 143 176 222
349 352 355 356 353 353 354 351 353 0 5 6 33 47 349 352 49 336 305 23 359 298 268 279 125 112 147 145 145 142 185 225 182 156 167 146 114 183 214 232 200 180 194 161 136 258 247
353 355 356 355 356 357 355 353 354 360 5 336 54 91 314 334 42 13 335 7 254 314 344 95 127 90 147 133 137 179 89 357 166 153 167 148 105 48 38 8 175 196 210 200 220 38 230
355 355 357 356 355 355 356 355 355 357 4 355 83 40 306 239 218 19 50 329 304 242 24 50 106 112 117 121 117 144 107 41 57 94 134 121 151 172 184 182 98 204 221 196 191 222 266
353 354 357 355 355 358 1 358 357 357 7 9 16 259 240 325 70 304 257 2 12 35 359 19 127 154 112 86 76 97 92 87 55 102 70 96 170 286 265 253 197 222 241 240 236 248 250
350 353 352 354 355 355 356 359 360 1 6 66 30 0 349 283 135 37 19 328 5 15 19 53 78 61 68 83 215 148 134 156 185 175 111 107 259 61 289 251 237 246 245 239 242 253 255
345 349 349 349 354 357 352 354 1 3 11 2 344 318 271 290 333 125 226 254 113 44 16 40 71 87 67 38 70 83 103 115 144 141 164 154 146 91 272 312 337 275 235 215 208 207 228
338 345 346 343 348 353 354 352 359 2 6 354 314 302 290 273 81 316 301 32 66 55 111 25 44 84 53 90 77 54 55 75 97 109 141 156 160 217 266 333 265 248 229 202 212 233 221
334 342 341 338 342 347 352 348 351 358 355 349 303 294 305 285 208 303 142 119 62 47 65 56 34 29 346 44 140 93 125 125 197 194 153 132 164 284 300 268 275 257 105 200 192 275 226
331 340 337 334 337 340 345 343 344 346 351 347 320 344 281 287 214 307 59 135 144 124 88 62 22 348 44 99 82 167 189 163 138 136 172 153 157 130 343 289 258 258 267 135 117 271 221
329 340 334 329 331 335 338 335 337 340 345 343 289 343 272 271 277 334 141 174 121 113 108 128 151 20 27 78 145 170 267 187 166 171 165 159 160 218 232 263 283 252 259 130 352 266 259
327 337 331 324 327 331 331 327 328 329 336 344 307 296 3 301 283 330 341 75 83 68 160 186 106 25 30 121 123 215 227 278 8 157 172 173 164 189 189 223 270 215 116 222 243 298 309
325 334 330 320 324 326 324 320 322 322 323 332 295 308 323 241 285 304 301 12 64 113 130 161 283 152 170 101 166 62 298 329 264 264 155 205 193 183 188 212 235 273 226 13 278 259 312
Height
835 832 829 826 822 817 813 809 805 801 797 794 790 787 785 783 779 777 775 772 770 768 765 763 764 767 769 770 760 756 755 759 764 767 769 772 774 777 780 779 779 781 777 772 771 770 770
835 830 826 822 819 814 810 806 801 797 793 789 786 783 781 779 776 774 771 769 766 764 763 760 761 765 767 766 754 754 755 758 760 764 767 770 770 770 774 776 780 769 772 773 771 771 771
832 829 826 822 816 811 808 804 798 793 789 785 782 779 776 774 772 769 767 765 763 761 758 757 757 761 762 755 752 752 755 756 759 761 764 766 768 769 770 772 770 770 777 776 774 771 771
832 827 822 818 814 809 804 800 795 790 785 781 778 775 772 769 768 765 763 760 758 756 755 752 753 758 756 750 750 752 754 755 757 759 761 764 768 767 768 769 770 775 778 790 772 766 764
830 826 821 816 811 806 801 796 792 787 782 778 774 771 768 766 764 762 759 757 753 751 750 748 747 753 753 744 746 748 751 752 755 757 760 763 767 770 770 777 781 778 795 789 779 759 760
828 824 820 814 808 803 798 792 788 783 779 774 771 768 765 762 760 758 756 752 747 747 746 745 742 755 747 740 742 745 749 752 754 757 760 764 769 775 777 781 791 787 788 783 781 762 756
826 820 817 812 806 800 795 790 785 780 775 772 768 765 762 759 757 755 754 749 747 747 741 733 737 733 726 735 740 744 747 750 754 759 767 765 773 776 778 778 774 775 778 782 772 763 765
822 818 814 808 803 798 793 788 783 778 773 769 766 762 759 757 755 752 751 751 749 752 744 732 734 734 729 733 741 745 747 752 757 765 763 770 773 765 765 768 771 779 784 783 771 763 769
820 815 811 806 801 796 791 785 780 775 770 766 762 759 756 754 751 748 745 746 746 747 747 733 734 734 733 735 739 743 745 749 756 763 763 772 765 761 769 771 774 777 782 781 782 774 772
818 813 808 803 798 793 788 782 777 772 767 763 759 756 753 751 748 745 743 741 745 747 744 732 730 729 731 733 742 742 745 749 754 760 763 765 761 763 769 773 774 782 777 779 781 787 795
816 811 806 801 796 790 785 780 774 769 763 758 755 752 749 746 744 743 743 742 743 748 728 731 727 725 729 735 739 746 745 746 755 756 762 771 765 768 773 773 772 781 778 782 785 792 796
815 810 805 799 794 788 783 777 771 766 760 755 750 747 742 736 735 734 739 742 743 744 725 718 721 724 735 736 737 744 747 748 748 753 760 765 761 767 772 770 773 777 781 784 788 797 822
813 808 802 797 791 786 781 775 769 763 757 752 746 740 736 733 732 730 737 742 747 733 725 722 718 723 731 735 741 745 749 756 760 772 776 766 769 768 769 777 775 779 796 834 806 801 809
812 806 801 796 790 784 779 773 766 759 753 746 740 735 732 731 731 733 737 743 750 716 717 715 716 725 731 734 745 747 753 762 755 759 783 790 797 773 771 776 782 786 789 824 808 812 790
810 805 800 795 790 784 778 772 764 756 746 735 731 732 732 734 733 737 739 745 731 722 717 716 726 736 740 735 744 749 753 759 757 758 773 786 776 762 767 769 774 784 806 789 806 798 832
809 805 799 794 789 782 776 771 763 754 742 733 732 735 739 740 741 742 742 730 736 727 715 715 726 726 735 736 745 751 753 753 752 755 756 760 770 767 766 767 772 780 781 799 823 832 805
809 804 799 794 789 782 776 770 762 754 744 738 738 739 745 745 744 746 745 736 740 722 718 714 717 722 728 736 741 745 754 745 749 753 756 755 763 779 770 774 779 782 777 778 795 802 799
809 804 799 794 789 783 777 770 763 756 747 743 742 752 749 747 750 748 738 733 742 733 721 716 715 721 729 735 740 739 750 746 744 747 758 757 770 787 785 772 770 775 779 787 817 801 800
809 804 800 794 789 783 777 770 764 759 753 749 751 753 751 751 748 744 738 735 737 722 712 712 716 716 725 732 743 738 746 745 742 746 752 758 781 812 783 778 771 775 772 774 780 786 794
808 804 799 795 790 784 778 771 764 758 753 751 753 762 754 750 746 748 740 738 735 720 714 711 716 720 726 730 733 743 748 748 746 748 748 754 771 787 791 774 773 788 770 770 778 782 766
806 803 798 795 791 785 779 774 766 758 752 750 750 755 750 754 745 741 736 733 726 722 718 716 720 723 724 732 735 742 746 752 752 752 755 763 788 777 773 768 777 775 770 769 771 761 768
805 802 798 795 792 786 781 776 770 763 755 754 756 753 752 750 742 740 740 736 729 728 725 727 728 729 731 735 739 739 744 751 754 758 760 764 786 785 786 763 763 768 758 758 757 752 749
803 800 798 794 791 787 782 778 773 767 762 760 759 758 756 747 744 741 741 734 733 730 731 732 731 734 739 742 742 743 743 745 747 758 763 767 782 794 797 759 758 754 741 740 736 734 734
802 799 797 794 790 786 782 779 775 771 769 767 762 761 757 746 746 739 734 732 735 733 735 736 735 738 743 740 743 745 748 750 753 756 758 765 773 774 781 761 753 727 721 722 729 726 724
799 797 795 793 790 786 782 779 776 773 770 767 763 762 756 751 744 737 732 737 738 739 739 741 743 744 742 742 743 753 753 753 756 757 758 758 763 773 768 769 745 722 718 722 729 723 714
797 794 793 792 789 785 781 778 775 772 769 765 762 761 759 753 742 738 732 734 739 740 740 747 745 744 744 747 751 746 750 741 751 755 755 760 761 766 767 762 750 724 716 716 723 726 709
795 792 791 789 786 784 780 777 773 771 767 765 762 761 759 751 741 737 734 735 735 738 744 745 745 747 747 751 749 756 749 738 750 748 754 756 761 763 763 762 749 724 716 719 726 720 708
792 789 788 788 784 781 778 776 772 769 766 764 761 759 759 754 744 738 735 734 734 738 742 749 749 749 750 746 752 754 755 742 740 745 746 750 753 752 755 755 756 714 716 721 713 707 707
788 785 784 784 781 778 776 773 770 767 764 763 761 758 758 758 747 741 738 737 736 737 742 746 743 746 744 749 755 754 746 753 744 742 735 743 738 739 746 738 717 711 709 711 711 711 710